Albany, VT

1:34 AM EDT on August 27, 2016 (GMT -0400)
Newport State

Weather History for KEFK - February, 2013

Change the Weather History Date:

Saturday, February 9, 2013

  Actual Average Record
Temperature  
Mean Temperature 8 °F -  
Max Temperature 14 °F 26 °F 46 °F (1990)
Min Temperature 2 °F 0 °F -34 °F (1959)
Degree Days  
Heating Degree Days 57    
Moisture  
Dew Point -1 °F    
Average Humidity 63    
Maximum Humidity 84    
Minimum Humidity 49    
Precipitation  
Precipitation 0.00 in - - ()
Sea Level Pressure  
Sea Level Pressure 30.11 in    
Wind  
Wind Speed 16 mph (NNW)    
Max Wind Speed 22 mph    
Max Gust Speed 30 mph    
Visibility 7 miles    
Events Snow    
Averages and records for this station are not official NWS values.
T = Trace of Precipitation, MM = Missing Value Source: NWS Daily Summary

Daily Weather History Graph

Daily Weather History Graph

Search for Another Location

Airport or City:

Trip Planner

Search our weather history database for the weather conditions in past years. The results will help you decide how hot, cold, wet, or windy it might be!

Date:

Astronomy

Feb. 09, 2013 Rise Set
Actual Time 6:57 AM EST 5:08 PM EST
Civil Twilight 6:27 AM EST 5:39 PM EST
Nautical Twilight 5:52 AM EST 6:14 PM EST
Astronomical Twilight 5:18 AM EST 6:48 PM EST
Moon 6:07 AM EST (2/9) 4:49 PM EST (2/9)
Length of Visible Light 11h 12m
Length of Day
10h 10m
Waning Crescent, 0% of the Moon is Illuminated
Feb 9
Waning Crescent
Feb 10
New
Feb 17
First Quarter
Feb 25
Full
Mar 4
Last Quarter

Hourly Weather History & Observations

Time (EST) Temp. Windchill Dew Point Humidity Pressure Visibility Wind Dir Wind Speed Gust Speed Precip Events Conditions
12:15 AM 13.1 °F -3.1 °F 9.0 °F 84% 29.96 in 2.0 mi North 16.1 mph - N/A Snow Light Snow
12:35 AM 12.0 °F -4.5 °F 7.5 °F 82% 29.95 in 1.5 mi North 16.1 mph 24.2 mph N/A Snow Light Snow
12:55 AM 11.3 °F -7.0 °F 6.4 °F 81% 29.95 in 1.5 mi North 19.6 mph 24.2 mph N/A Snow Light Snow
1:15 AM 10.9 °F -7.5 °F 5.9 °F 80% 29.95 in 1.8 mi North 19.6 mph 25.3 mph N/A Snow Light Snow
1:55 AM 10.4 °F -7.2 °F 5.5 °F 81% 29.96 in 2.0 mi North 17.3 mph 26.5 mph N/A Snow Light Snow
2:15 AM 10.2 °F -8.9 °F 5.0 °F 79% 29.97 in 2.0 mi North 20.7 mph 26.5 mph N/A Snow Light Snow
2:35 AM 9.5 °F -9.3 °F 4.1 °F 79% 29.97 in 2.0 mi North 19.6 mph 24.2 mph N/A Snow Light Snow
2:55 AM 9.1 °F -8.8 °F 3.9 °F 79% 29.98 in 3.0 mi North 17.3 mph 23.0 mph N/A Snow Light Snow
3:15 AM 8.6 °F -8.9 °F 3.6 °F 80% 29.97 in 2.5 mi North 16.1 mph 19.6 mph N/A Snow Light Snow
3:35 AM 8.2 °F -10.5 °F 3.2 °F 80% 29.97 in 1.8 mi NNW 18.4 mph 23.0 mph N/A Snow Light Snow
3:55 AM 8.1 °F -9.6 °F 3.0 °F 80% 29.98 in 1.5 mi NNW 16.1 mph 25.3 mph N/A Snow Light Snow
4:15 AM 7.7 °F -9.5 °F 2.7 °F 80% 29.99 in 2.5 mi North 15.0 mph 21.9 mph N/A Snow Light Snow
4:35 AM 7.7 °F -10.1 °F 2.3 °F 79% 29.99 in 3.0 mi North 16.1 mph 21.9 mph N/A Snow Light Snow
4:55 AM 7.3 °F -10.6 °F 1.8 °F 78% 30.00 in 3.0 mi North 16.1 mph 21.9 mph N/A Snow Light Snow
5:15 AM 7.3 °F -10.6 °F 1.4 °F 77% 29.99 in 3.0 mi North 16.1 mph 19.6 mph N/A Snow Light Snow
5:35 AM 7.3 °F -9.3 °F 1.2 °F 76% 30.00 in 3.0 mi North 13.8 mph 21.9 mph N/A Snow Light Snow
5:55 AM 7.3 °F -9.3 °F 0.7 °F 74% 30.00 in 4.0 mi North 13.8 mph - N/A Snow Light Snow
6:15 AM 7.7 °F -11.2 °F 0.7 °F 73% 30.00 in 5.0 mi NNW 18.4 mph - N/A Snow Light Snow
6:35 AM 7.7 °F -10.1 °F -1.3 °F 67% 30.01 in 7.0 mi North 16.1 mph 25.3 mph N/A Snow Light Snow
6:55 AM 7.7 °F -11.7 °F -2.2 °F 64% 30.02 in 10.0 mi NNW 19.6 mph 24.2 mph N/A   Overcast
7:15 AM 7.3 °F -11.7 °F -2.9 °F 63% 30.02 in 7.0 mi NNW 18.4 mph 24.2 mph N/A   Overcast
7:35 AM 7.2 °F -12.9 °F -3.1 °F 63% 30.04 in 5.0 mi NNW 20.7 mph 28.8 mph N/A   Haze
7:55 AM 7.2 °F -12.9 °F -4.0 °F 60% 30.05 in 5.0 mi NNW 20.7 mph 26.5 mph N/A   Haze
8:15 AM 7.3 °F -11.7 °F -4.2 °F 59% 30.06 in 7.0 mi NNW 18.4 mph - N/A   Overcast
8:35 AM 7.5 °F -12.9 °F -4.2 °F 59% 30.06 in 4.0 mi North 21.9 mph 28.8 mph N/A   Haze
8:55 AM 7.7 °F -11.7 °F -3.6 °F 60% 30.07 in 7.0 mi North 19.6 mph 25.3 mph N/A   Mostly Cloudy
9:15 AM 8.1 °F -11.2 °F -3.3 °F 60% 30.07 in 4.0 mi NNW 19.6 mph 29.9 mph N/A   Haze
9:35 AM 8.4 °F -10.8 °F -3.1 °F 60% 30.08 in 10.0 mi North 19.6 mph 24.2 mph N/A   Clear
9:55 AM 9.0 °F -9.0 °F -2.6 °F 60% 30.08 in 10.0 mi NNW 17.3 mph - N/A   Clear
10:15 AM 9.1 °F -10.7 °F -2.2 °F 60% 30.09 in 5.0 mi NNW 21.9 mph 27.6 mph N/A   Haze
10:35 AM 9.7 °F -8.6 °F -1.5 °F 61% 30.09 in 5.0 mi North 18.4 mph 27.6 mph N/A   Haze
10:55 AM 10.2 °F -8.4 °F -1.5 °F 59% 30.09 in 7.0 mi North 19.6 mph 27.6 mph N/A   Clear
11:15 AM 10.9 °F -7.5 °F -1.3 °F 58% 30.09 in 5.0 mi North 19.6 mph 25.3 mph N/A   Haze
11:35 AM 12.0 °F -4.5 °F 0.3 °F 59% 30.09 in 7.0 mi North 16.1 mph 21.9 mph N/A   Clear
11:55 AM 11.8 °F -6.7 °F -0.6 °F 58% 30.09 in 7.0 mi North 20.7 mph 26.5 mph N/A   Clear
12:15 PM 12.6 °F -5.8 °F 0.1 °F 58% 30.09 in 5.0 mi North 20.7 mph 25.3 mph N/A   Haze
12:35 PM 12.9 °F -3.9 °F 0.7 °F 58% 30.09 in 10.0 mi NNW 17.3 mph 24.2 mph N/A   Clear
12:55 PM 13.1 °F -3.7 °F 0.7 °F 58% 30.09 in 10.0 mi NNW 17.3 mph - N/A   Clear
1:15 PM 13.1 °F -5.1 °F 0.5 °F 57% 30.09 in 10.0 mi NNW 20.7 mph 25.3 mph N/A   Clear
1:35 PM 12.9 °F -3.9 °F 1.0 °F 59% 30.09 in 10.0 mi NNW 17.3 mph 24.2 mph N/A   Clear
1:55 PM 12.9 °F -4.4 °F 0.1 °F 57% 30.10 in 10.0 mi NNW 18.4 mph 26.5 mph N/A   Clear
2:35 PM 13.5 °F -3.7 °F 0.3 °F 56% 30.11 in 7.0 mi NNW 18.4 mph 26.5 mph N/A   Clear
2:55 PM 13.8 °F -4.1 °F -0.0 °F 54% 30.12 in 5.0 mi NNW 20.7 mph 27.6 mph N/A   Haze
3:15 PM 14.2 °F -2.3 °F -0.2 °F 53% 30.12 in 10.0 mi North 17.3 mph 23.0 mph N/A   Clear
3:35 PM 14.0 °F -3.9 °F -0.0 °F 54% 30.13 in 10.0 mi North 20.7 mph 26.5 mph N/A   Clear
4:15 PM 13.5 °F -0.9 °F -2.0 °F 50% 30.15 in 10.0 mi NNW 12.7 mph - N/A   Clear
4:35 PM 12.7 °F -2.5 °F -3.1 °F 49% 30.16 in 10.0 mi NNW 13.8 mph 19.6 mph N/A   Clear
4:55 PM 11.5 °F -4.1 °F -4.0 °F 50% 30.17 in 10.0 mi NW 13.8 mph 18.4 mph N/A   Clear
5:15 PM 10.9 °F -5.4 °F -4.0 °F 51% 30.17 in 10.0 mi NW 15.0 mph - N/A   Clear
5:35 PM 10.4 °F -4.1 °F -4.2 °F 52% 30.18 in 10.0 mi NNW 11.5 mph - N/A   Clear
5:55 PM 10.4 °F -5.4 °F -4.2 °F 52% 30.19 in 10.0 mi NNW 13.8 mph - N/A   Clear
6:15 PM 10.0 °F -3.7 °F -4.4 °F 52% 30.20 in 10.0 mi NW 10.4 mph 16.1 mph N/A   Clear
6:35 PM 9.5 °F -0.3 °F -4.9 °F 52% 30.21 in 10.0 mi NW 5.8 mph 16.1 mph N/A   Clear
6:55 PM 9.5 °F -1.5 °F -4.5 °F 53% 30.22 in 10.0 mi NW 6.9 mph - N/A   Clear
7:15 PM 9.3 °F 1.0 °F -4.9 °F 53% 30.23 in 10.0 mi NNW 4.6 mph - N/A   Clear
7:35 PM 8.2 °F -1.8 °F -5.4 °F 54% 30.24 in 10.0 mi NNW 5.8 mph - N/A   Clear
7:55 PM 8.2 °F -5.1 °F -5.8 °F 53% 30.24 in 10.0 mi NNW 9.2 mph - N/A   Clear
8:15 PM 9.1 °F -4.9 °F -5.3 °F 52% 30.25 in 10.0 mi NNW 10.4 mph - N/A   Clear
8:35 PM 8.6 °F - -5.4 °F 53% 30.25 in 10.0 mi Calm Calm - N/A   Clear
8:55 PM 7.5 °F 0.8 °F -5.3 °F 56% 30.26 in 10.0 mi WNW 3.5 mph - N/A   Clear
9:15 PM 5.7 °F -3.2 °F -5.8 °F 59% 30.27 in 10.0 mi NNW 4.6 mph - N/A   Clear
9:35 PM 7.5 °F -2.6 °F -6.2 °F 54% 30.27 in 10.0 mi NNW 5.8 mph - N/A   Clear
9:55 PM 5.9 °F -5.8 °F -6.9 °F 56% 30.27 in 10.0 mi North 6.9 mph - N/A   Clear
10:15 PM 5.5 °F -3.4 °F -6.0 °F 59% 30.27 in 10.0 mi NNW 4.6 mph - N/A   Clear
10:35 PM 6.8 °F -2.0 °F -5.8 °F 56% 30.27 in 10.0 mi North 4.6 mph - N/A   Clear
10:55 PM 5.4 °F -5.2 °F -6.3 °F 59% 30.27 in 10.0 mi North 5.8 mph - N/A   Clear
11:15 PM 4.8 °F -4.3 °F -6.5 °F 60% 30.27 in 10.0 mi North 4.6 mph - N/A   Clear
11:35 PM 2.5 °F - -7.8 °F 62% 30.28 in 10.0 mi Calm Calm - N/A   Clear
11:55 PM 2.5 °F - -5.4 °F 70% 30.28 in 10.0 mi Calm Calm - N/A   Clear